Location: Unspecified
(43.4354°N, 0.0000°E)
Time: 10:36:32
(UTC+00:00)

Transit 2A - Pass Details

Date: 17 June 2019
Orbit: 594 x 964 km, 66.7° (Epoch: 19 July)

Event Time Altitude Azimuth Distance (km) Brightness Sun altitude
Rises 10:16:44 0° 328° (NNW) 3,469 9.1 60.7°
Reaches altitude 10° 10:19:20 10° 328° (NNW) 2,474 8.5 61.0°
Maximum altitude 10:25:02 89° 240° (WSW) 787 7.4 61.9°
Drops below altitude 10° 10:30:06 10° 151° (SSE) 2,205 9.0 62.6°
Sets 10:32:19 0° 151° (SSE) 3,067 9.5 62.9°
